Location: Lancaster
(34.6980°N, 118.1360°W)
Time: 11:13:57
(UTC-08:00)

Hubble Space Telescope - Visible Passes

Search period start: 17 November 2017 00:00
Search period end: 27 November 2017 00:00
Orbit: 537 x 541 km, 28.5° (Epoch: 17 November)

Date Brightness Start Highest point End Pass type
(mag) Time Alt. Az. Time Alt. Az. Time Alt. Az.
17 Nov 2.9 04:48:53 14° SSW 04:51:01 21° SSE 04:54:08 10° ESE visible
18 Nov 2.5 04:39:35 21° SSW 04:40:44 24° SSE 04:44:03 10° ESE visible
19 Nov 2.3 04:30:12 26° S 04:30:26 27° SSE 04:33:56 10° ESE visible
20 Nov 2.4 04:20:44 28° SSE 04:20:44 28° SSE 04:23:46 10° ESE visible
20 Nov 2.1 05:57:16 10° WSW 06:01:00 33° S 06:04:45 10° ESE visible
21 Nov 2.7 04:11:14 25° SE 04:11:14 25° SE 04:13:35 10° ESE visible
21 Nov 2.1 05:47:04 10° WSW 05:50:45 31° S 05:54:26 10° ESE visible
22 Nov 3.1 04:01:41 21° SE 04:01:41 21° SE 04:03:22 10° ESE visible
22 Nov 2.2 05:37:03 11° WSW 05:40:28 29° S 05:44:04 10° SE visible
23 Nov 3.5 03:52:07 16° ESE 03:52:07 16° ESE 03:53:07 10° ESE visible
23 Nov 2.3 05:27:28 14° WSW 05:30:11 27° SSW 05:33:41 10° SE visible
24 Nov 3.9 03:42:32 12° ESE 03:42:32 12° ESE 03:42:51 10° ESE visible
24 Nov 2.4 05:17:54 17° SW 05:19:54 24° SSW 05:23:14 10° SE visible
25 Nov 2.5 05:08:19 18° SW 05:09:36 21° SSW 05:12:43 10° SSE visible
26 Nov 2.7 04:58:45 17° SSW 04:59:18 18° SSW 05:02:05 10° SSE visible
